| time (UTC) | temp F | wind direction | speed knots | gust knots | rain 1hr in | rain 24hr in | rain mn in | humidity % | barometer mb |
| 20260510144913 | 73 | 0 | 0.0 | 1.7 | 0.00 | 0.00 | 0.00 | 23 | 1014.1 |
| 20260510144416 | 72 | 0 | 0.0 | 1.7 | 0.00 | 0.00 | 0.00 | 21 | 1014.1 |
| 20260510143919 | 72 | 0 | 0.0 | 0.9 | 0.00 | 0.00 | 0.00 | 24 | 1014.0 |
| 20260510143422 | 71 | 0 | 0.0 | 3.5 | 0.00 | 0.00 | 0.00 | 23 | 1014.0 |
| 20260510142428 | 71 | 350 | 2.6 | 3.5 | 0.00 | 0.00 | 0.00 | 20 | 1013.8 |
| 20260510135446 | 68 | 312 | 0.9 | 2.6 | 0.00 | 0.00 | 0.00 | 16 | 1013.7 |
| 20260510133955 | 68 | 0 | 0.0 | 1.7 | 0.00 | 0.00 | 0.00 | 12 | 1013.4 |
| 20260510130516 | 67 | 0 | 0.0 | 2.6 | 0.00 | 0.00 | 0.00 | 11 | 1013.0 |
| 20260510125025 | 66 | 299 | 0.9 | 2.6 | 0.00 | 0.00 | 0.00 | 11 | 1013.1 |
| 20260510124528 | 66 | 299 | 0.9 | 2.6 | 0.00 | 0.00 | 0.00 | 11 | 1013.1 |
| 20260510123534 | 66 | 299 | 0.9 | 2.6 | 0.00 | 0.00 | 0.00 | 11 | 1013.0 |
| 20260510122540 | 66 | 294 | 0.9 | 4.3 | 0.00 | 0.00 | 0.00 | 11 | 1013.1 |
| 20260510121546 | 66 | 291 | 2.6 | 5.2 | 0.00 | 0.00 | 0.00 | 12 | 1013.2 |
| 20260510121049 | 66 | 291 | 3.5 | 5.2 | 0.00 | 0.00 | 0.00 | 11 | 1013.1 |
| 20260510120552 | 67 | 286 | 3.5 | 6.1 | 0.00 | 0.00 | 0.00 | 11 | 1013.1 |
| 20260510120056 | 67 | 276 | 3.5 | 6.1 | 0.00 | 0.00 | 0.00 | 12 | 1013.1 |
| 20260510115138 | 67 | 282 | 3.5 | 7.0 | 0.00 | 0.00 | 0.00 | 11 | 1013.0 |
| 20260510115102 | 67 | 282 | 3.5 | 7.0 | 0.00 | 0.00 | 0.00 | 11 | 1013.0 |
| 20260510114604 | 66 | 277 | 5.2 | 7.0 | 0.00 | 0.00 | 0.00 | 12 | 1013.0 |
| 20260510114107 | 66 | 288 | 3.5 | 6.1 | 0.00 | 0.00 | 0.00 | 11 | 1013.0 |
| 20260510113113 | 66 | 277 | 4.3 | 7.0 | 0.00 | 0.00 | 0.00 | 12 | 1013.0 |
| 20260510112119 | 66 | 273 | 4.3 | 7.0 | 0.00 | 0.00 | 0.00 | 12 | 1013.1 |
| 20260510105635 | 65 | 252 | 4.3 | 7.8 | 0.00 | 0.00 | 0.00 | 13 | 1013.1 |
| 20260510104641 | 65 | 257 | 4.3 | 7.8 | 0.00 | 0.00 | 0.00 | 14 | 1013.1 |
| 20260510104143 | 65 | 256 | 4.3 | 7.8 | 0.00 | 0.00 | 0.00 | 14 | 1013.1 |
| 20260510102652 | 63 | 258 | 5.2 | 7.0 | 0.00 | 0.00 | 0.00 | 14 | 1013.1 |
| 20260510101201 | 63 | 251 | 5.2 | 12.2 | 0.00 | 0.00 | 0.00 | 16 | 1013.3 |
| 20260510100743 | 62 | 241 | 7.8 | 12.2 | 0.00 | 0.00 | 0.00 | 17 | 1013.3 |
| 20260510100704 | 62 | 241 | 7.8 | 12.2 | 0.00 | 0.00 | 0.00 | 17 | 1013.3 |
| 20260510100207 | 62 | 248 | 5.2 | 10.4 | 0.00 | 0.00 | 0.00 | 17 | 1013.2 |
| 20260510095710 | 62 | 250 | 5.2 | 11.3 | 0.00 | 0.00 | 0.00 | 17 | 1013.3 |
| 20260510095213 | 62 | 247 | 7.0 | 11.3 | 0.00 | 0.00 | 0.00 | 18 | 1013.3 |
| 20260510094219 | 62 | 254 | 4.3 | 8.7 | 0.00 | 0.00 | 0.00 | 18 | 1013.2 |
| 20260510093722 | 62 | 257 | 4.3 | 8.7 | 0.00 | 0.00 | 0.00 | 17 | 1013.3 |
| 20260510092728 | 62 | 276 | 3.5 | 7.0 | 0.00 | 0.00 | 0.00 | 17 | 1013.3 |
| 20260510090741 | 62 | 289 | 3.5 | 7.8 | 0.00 | 0.00 | 0.00 | 18 | 1013.2 |
| 20260510085746 | 62 | 261 | 2.6 | 8.7 | 0.00 | 0.00 | 0.00 | 18 | 1013.3 |
| 20260510084752 | 62 | 258 | 5.2 | 9.6 | 0.00 | 0.00 | 0.00 | 19 | 1013.3 |
| 20260510083852 | 62 | 257 | 5.2 | 12.2 | 0.00 | 0.00 | 0.00 | 19 | 1013.4 |
| 20260510083758 | 62 | 257 | 5.2 | 12.2 | 0.00 | 0.00 | 0.00 | 19 | 1013.4 |
| 20260510083301 | 62 | 256 | 6.1 | 12.2 | 0.00 | 0.00 | 0.00 | 19 | 1013.4 |
| 20260510082422 | 62 | 253 | 7.0 | 11.3 | 0.00 | 0.00 | 0.00 | 20 | 1013.3 |
| 20260510082307 | 62 | 253 | 7.0 | 11.3 | 0.00 | 0.00 | 0.00 | 20 | 1013.3 |
| 20260510081846 | 62 | 249 | 7.8 | 11.3 | 0.00 | 0.00 | 0.00 | 20 | 1013.5 |
| 20260510081810 | 62 | 249 | 7.8 | 11.3 | 0.00 | 0.00 | 0.00 | 20 | 1013.5 |
| 20260510080816 | 62 | 257 | 4.3 | 12.2 | 0.00 | 0.00 | 0.00 | 20 | 1013.5 |
| 20260510080319 | 62 | 254 | 6.1 | 12.2 | 0.00 | 0.00 | 0.00 | 20 | 1013.5 |
| 20260510075822 | 62 | 246 | 8.7 | 12.2 | 0.00 | 0.00 | 0.00 | 20 | 1013.5 |
| 20260510075325 | 63 | 250 | 7.8 | 12.2 | 0.00 | 0.00 | 0.00 | 19 | 1013.5 |
| 20260510074331 | 63 | 254 | 6.1 | 11.3 | 0.00 | 0.00 | 0.00 | 17 | 1013.6 |
| 20260510073337 | 63 | 243 | 8.7 | 12.2 | 0.00 | 0.00 | 0.00 | 19 | 1013.5 |
| 20260510071846 | 64 | 243 | 8.7 | 15.6 | 0.00 | 0.00 | 0.00 | 20 | 1013.6 |
| 20260510070852 | 64 | 249 | 9.6 | 13.9 | 0.00 | 0.00 | 0.00 | 17 | 1013.6 |
| 20260510070355 | 64 | 250 | 10.4 | 14.8 | 0.00 | 0.00 | 0.00 | 17 | 1013.7 |
| 20260510065858 | 64 | 244 | 10.4 | 15.6 | 0.00 | 0.00 | 0.00 | 21 | 1013.6 |
| 20260510064904 | 64 | 242 | 11.3 | 14.8 | 0.00 | 0.00 | 0.00 | 23 | 1013.6 |
| 20260510064407 | 64 | 240 | 11.3 | 14.8 | 0.00 | 0.00 | 0.00 | 21 | 1013.6 |
| 20260510063502 | 65 | 242 | 13.0 | 16.5 | 0.00 | 0.00 | 0.00 | 20 | 1013.6 |
| 20260510063413 | 65 | 242 | 13.0 | 16.5 | 0.00 | 0.00 | 0.00 | 20 | 1013.6 |
| 20260510062916 | 65 | 241 | 12.2 | 16.5 | 0.00 | 0.00 | 0.00 | 19 | 1013.6 |
| 20260510061425 | 65 | 240 | 11.3 | 16.5 | 0.00 | 0.00 | 0.00 | 18 | 1013.6 |
| 20260510060928 | 65 | 240 | 10.4 | 16.5 | 0.00 | 0.00 | 0.00 | 17 | 1013.5 |
| 20260510060025 | 64 | 241 | 12.2 | 17.4 | 0.00 | 0.00 | 0.00 | 21 | 1013.5 |
| 20260510055934 | 64 | 241 | 12.2 | 17.4 | 0.00 | 0.00 | 0.00 | 21 | 1013.5 |
| 20260510054443 | 63 | 241 | 13.9 | 18.2 | 0.00 | 0.00 | 0.00 | 31 | 1013.3 |
| 20260510051958 | 64 | 242 | 12.2 | 15.6 | 0.00 | 0.00 | 0.00 | 29 | 1013.5 |
| 20260510051501 | 64 | 243 | 10.4 | 15.6 | 0.00 | 0.00 | 0.00 | 27 | 1013.5 |
| 20260510050507 | 64 | 242 | 11.3 | 16.5 | 0.00 | 0.00 | 0.00 | 33 | 1013.5 |
| 20260510045513 | 65 | 242 | 12.2 | 16.5 | 0.00 | 0.00 | 0.00 | 33 | 1013.5 |
| 20260510045016 | 65 | 244 | 10.4 | 16.5 | 0.00 | 0.00 | 0.00 | 28 | 1013.5 |
| 20260510043525 | 65 | 247 | 10.4 | 15.6 | 0.00 | 0.00 | 0.00 | 27 | 1013.3 |
| 20260510043028 | 64 | 244 | 11.3 | 15.6 | 0.00 | 0.00 | 0.00 | 32 | 1013.4 |
| 20260510042531 | 64 | 243 | 10.4 | 16.5 | 0.00 | 0.00 | 0.00 | 34 | 1013.3 |
| 20260510041538 | 64 | 242 | 12.2 | 15.6 | 0.00 | 0.00 | 0.00 | 36 | 1013.3 |
| 20260510040046 | 63 | 240 | 11.3 | 14.8 | 0.00 | 0.00 | 0.00 | 43 | 1014.0 |
| 20260510035549 | 64 | 240 | 11.3 | 16.5 | 0.00 | 0.00 | 0.00 | 44 | 1013.9 |
| 20260510035053 | 63 | 240 | 12.2 | 16.5 | 0.00 | 0.00 | 0.00 | 45 | 1013.8 |
| 20260510034555 | 63 | 240 | 13.0 | 16.5 | 0.00 | 0.00 | 0.00 | 44 | 1013.8 |
| 20260510033105 | 62 | 247 | 10.4 | 13.0 | 0.00 | 0.00 | 0.00 | 48 | 1013.6 |
| 20260510032607 | 62 | 252 | 8.7 | 11.3 | 0.00 | 0.00 | 0.00 | 50 | 1013.5 |
| 20260510032111 | 61 | 250 | 7.8 | 13.0 | 0.00 | 0.00 | 0.00 | 53 | 1013.5 |
| 20260510024632 | 62 | 251 | 10.4 | 15.6 | 0.00 | 0.00 | 0.00 | 69 | 1013.0 |
| 20260510023141 | 62 | 254 | 12.2 | 16.5 | 0.00 | 0.00 | 0.00 | 71 | 1012.9 |
| 20260510022643 | 62 | 257 | 12.2 | 16.5 | 0.00 | 0.00 | 0.00 | 70 | 1012.9 |
| 20260510021650 | 63 | 254 | 11.3 | 16.5 | 0.00 | 0.00 | 0.00 | 68 | 1012.8 |
| 20260510021153 | 64 | 259 | 12.2 | 16.5 | 0.00 | 0.00 | 0.00 | 67 | 1012.8 |
| 20260510020656 | 64 | 255 | 13.0 | 16.5 | 0.00 | 0.00 | 0.00 | 67 | 1012.9 |
| 20260510014707 | 66 | 265 | 13.0 | 17.4 | 0.00 | 0.00 | 0.00 | 64 | 1012.9 |
| 20260510013714 | 67 | 251 | 11.3 | 17.4 | 0.00 | 0.00 | 0.00 | 63 | 1012.9 |
| 20260510013217 | 68 | 254 | 12.2 | 16.5 | 0.00 | 0.00 | 0.00 | 62 | 1012.8 |
| 20260510012720 | 68 | 257 | 10.4 | 16.5 | 0.00 | 0.00 | 0.00 | 61 | 1012.9 |
| 20260510012223 | 69 | 265 | 12.2 | 18.2 | 0.00 | 0.00 | 0.00 | 60 | 1012.9 |
| 20260510010732 | 70 | 262 | 9.6 | 17.4 | 0.00 | 0.00 | 0.00 | 59 | 1013.0 |
| 20260510002756 | 72 | 269 | 12.2 | 16.5 | 0.00 | 0.00 | 0.00 | 56 | 1012.8 |
| 20260510002259 | 72 | 263 | 11.3 | 19.1 | 0.00 | 0.00 | 0.00 | 56 | 1012.9 |
| 20260510001305 | 73 | 260 | 12.2 | 19.1 | 0.00 | 0.00 | 0.00 | 54 | 1012.8 |
| 20260510000808 | 73 | 269 | 13.9 | 19.1 | 0.00 | 0.00 | 0.00 | 53 | 1012.8 |
| 20260509235814 | 74 | 274 | 9.6 | 16.5 | 0.00 | 0.00 | 0.00 | 52 | 1012.8 |
| 20260509234820 | 74 | 256 | 12.2 | 17.4 | 0.00 | 0.00 | 0.00 | 51 | 1012.9 |
| 20260509233329 | 74 | 275 | 13.9 | 20.0 | 0.00 | 0.00 | 0.00 | 49 | 1012.9 |
| 20260509232832 | 75 | 265 | 12.2 | 17.4 | 0.00 | 0.00 | 0.00 | 51 | 1012.9 |
| 20260509232335 | 75 | 270 | 11.3 | 19.1 | 0.00 | 0.00 | 0.00 | 51 | 1013.0 |
| 20260509231838 | 75 | 276 | 10.4 | 19.1 | 0.00 | 0.00 | 0.00 | 49 | 1013.0 |
| 20260509231341 | 76 | 271 | 11.3 | 18.2 | 0.00 | 0.00 | 0.00 | 51 | 1013.0 |
| 20260509225850 | 76 | 275 | 13.0 | 17.4 | 0.00 | 0.00 | 0.00 | 48 | 1013.2 |
| 20260509222908 | 77 | 279 | 9.6 | 0.0 | 0.00 | 0.00 | 0.00 | 47 | 1013.4 |
| 20260509221914 | 77 | 272 | 12.2 | 18.2 | 0.00 | 0.00 | 0.00 | 44 | 1013.4 |
| 20260509221417 | 77 | 253 | 8.7 | 18.2 | 0.00 | 0.00 | 0.00 | 41 | 1013.5 |
| 20260509214932 | 78 | 262 | 11.3 | 16.5 | 0.00 | 0.00 | 0.00 | 39 | 1014.0 |
| 20260509214435 | 78 | 264 | 8.7 | 18.2 | 0.00 | 0.00 | 0.00 | 40 | 1013.9 |
| 20260509211453 | 78 | 245 | 11.3 | 18.2 | 0.00 | 0.00 | 0.00 | 32 | 1014.3 |
| 20260509205008 | 78 | 273 | 11.3 | 17.4 | 0.00 | 0.00 | 0.00 | 34 | 1014.5 |
| 20260509204014 | 78 | 241 | 11.3 | 17.4 | 0.00 | 0.00 | 0.00 | 33 | 1014.5 |
| 20260509203517 | 78 | 270 | 9.6 | 16.5 | 0.00 | 0.00 | 0.00 | 36 | 1014.5 |
| 20260509195541 | 78 | 252 | 8.7 | 16.5 | 0.00 | 0.00 | 0.00 | 35 | 1014.9 |
| 20260509195044 | 78 | 238 | 9.6 | 16.5 | 0.00 | 0.00 | 0.00 | 33 | 1015.0 |
| 20260509194050 | 78 | 252 | 8.7 | 13.0 | 0.00 | 0.00 | 0.00 | 37 | 1015.1 |
| 20260509191605 | 78 | 253 | 8.7 | 0.0 | 0.00 | 0.00 | 0.00 | 38 | 1015.2 |
| 20260509184126 | 76 | 276 | 8.7 | 14.8 | 0.00 | 0.00 | 0.00 | 39 | 1015.3 |
| 20260509182635 | 75 | 239 | 9.6 | 14.8 | 0.00 | 0.00 | 0.00 | 36 | 1015.2 |
| 20260509181144 | 74 | 256 | 7.8 | 13.0 | 0.00 | 0.00 | 0.00 | 39 | 1015.3 |
| 20260509180647 | 74 | 256 | 9.6 | 13.0 | 0.00 | 0.00 | 0.00 | 37 | 1015.3 |
| 20260509175156 | 73 | 264 | 7.8 | 12.2 | 0.00 | 0.00 | 0.00 | 40 | 1015.3 |
| 20260509173705 | 73 | 269 | 8.7 | 13.0 | 0.00 | 0.00 | 0.00 | 42 | 1015.2 |
| 20260509173208 | 73 | 268 | 9.6 | 13.0 | 0.00 | 0.00 | 0.00 | 41 | 1015.2 |
| 20260509171717 | 0 | 256 | 7.0 | 12.2 | 0.00 | 0.00 | 0.00 | ||
| 20260509170226 | 71 | 254 | 7.0 | 13.9 | 0.00 | 0.00 | 0.00 | 44 | 1015.1 |
| 20260509165232 | 71 | 259 | 7.8 | 12.2 | 0.00 | 0.00 | 0.00 | 44 | 1015.0 |
| 20260509164735 | 71 | 259 | 7.8 | 12.2 | 0.00 | 0.00 | 0.00 | 45 | 1015.0 |
| 20260509163744 | 70 | 248 | 7.8 | 13.9 | 0.00 | 0.00 | 0.00 | 45 | 1014.0 |
| 20260509162250 | 69 | 250 | 7.8 | 14.8 | 0.00 | 0.00 | 0.00 | 47 | 1014.1 |
| 20260509161753 | 69 | 257 | 9.6 | 14.8 | 0.00 | 0.00 | 0.00 | 47 | 1014.1 |
| 20260509160302 | 68 | 255 | 9.6 | 13.9 | 0.00 | 0.00 | 0.00 | 46 | 1013.9 |
| 20260509154314 | 68 | 258 | 7.8 | 13.0 | 0.00 | 0.00 | 0.00 | 42 | 1013.8 |
| 20260509153817 | 67 | 256 | 7.8 | 10.4 | 0.00 | 0.00 | 0.00 | 41 | 1013.8 |
| 20260509152823 | 66 | 246 | 7.0 | 12.2 | 0.00 | 0.00 | 0.00 | 49 | 1013.8 |
| 20260509152326 | 66 | 249 | 7.8 | 11.3 | 0.00 | 0.00 | 0.00 | 48 | 1013.8 |
| 20260509151829 | 65 | 240 | 7.0 | 12.2 | 0.00 | 0.00 | 0.00 | 51 | 1013.7 |
| 20260509151332 | 65 | 244 | 6.1 | 13.0 | 0.00 | 0.00 | 0.00 | 52 | 1013.8 |
| 20260509150338 | 64 | 245 | 9.6 | 13.9 | 0.00 | 0.00 | 0.00 | 49 | 1013.7 |
| 20260509145841 | 64 | 259 | 7.8 | 13.0 | 0.00 | 0.00 | 0.00 | 45 | 1013.9 |